Weather History for Salem, OR

Change the Weather History Date:

Wednesday, August 29, 2012

  Actual Average Record
Temperature  
Mean Temperature 64 °F 66 °F  
Max Temperature 77 °F 81 °F 101 °F (1931)
Min Temperature 51 °F 52 °F 38 °F (1965)
Degree Days  
Heating Degree Days 1 1  
Month to date heating degree days 7 26  
Since 1 June heating degree days 191 186  
Since 1 July heating degree days 32 56  
Cooling Degree Days 0 2  
Month to date cooling degree days 159 101  
Year to date cooling degree days 269 247  
Since 1 June cooling degree days 265 238  
Growing Degree Days 14 (Base 50)    
Moisture  
Dew Point 50 °F    
Average Humidity 65    
Maximum Humidity 93    
Minimum Humidity 36    
Precipitation  
Precipitation 0.00 in 0.02 in 0.98 in (1983)
Month to date precipitation T 0.40  
Year to date precipitation 32.10 21.95  
Snow  
Snow 0.00 in - - ()
Month to date snowfall 0.0  
Since 1 June snowfall 0.0  
Snow Depth 0.00 in    
Sea Level Pressure  
Sea Level Pressure 30.10 in    
Wind  
Wind Speed 4 mph (NNW)    
Max Wind Speed 13 mph    
Max Gust Speed 15 mph    
Visibility 10 miles    
Events      
T = Trace of Precipitation, MM = Missing Value Source: NWS Daily Summary

Daily Weather History Graph

Daily Weather History Graph

Search for Another Location

Airport:

Trip Planner

Search our weather history database for the weather conditions in past years. The results will help you decide how hot, cold, wet, or windy it might be!

Date:

Astronomy

Aug. 29, 2012 Rise Set
Actual Time 6:31 AM PDT 7:53 PM PDT
Civil Twilight 6:00 AM PDT 8:23 PM PDT
Nautical Twilight 5:24 AM PDT 9:00 PM PDT
Astronomical Twilight 4:44 AM PDT 9:39 PM PDT
Moon 6:38 PM PDT (8/29) 4:30 AM PDT (8/29)
Length of Visible Light 14h 22m
Length of Day
13h 22m
Waxing Gibbous, 96% of the Moon is Illuminated
Aug 29
Waxing Gibbous
Aug 31
Full
Sep 8
Last Quarter
Sep 15
New
Sep 22
First Quarter

Hourly Weather History & Observations

Time (PDT) Temp. Dew Point Humidity Pressure Visibility Wind Dir Wind Speed Gust Speed Precip Events Conditions
12:56 AM 54.0 °F 48.9 °F 83% 30.12 in 10.0 mi Calm Calm - N/A   Clear
1:56 AM 53.1 °F 50.0 °F 89% 30.12 in 10.0 mi SE 3.5 mph - N/A   Mostly Cloudy
2:56 AM 54.0 °F 51.1 °F 90% 30.12 in 10.0 mi SSW 3.5 mph - N/A   Clear
3:56 AM 54.0 °F 51.1 °F 90% 30.12 in 10.0 mi Calm Calm - N/A   Clear
4:56 AM 54.0 °F 51.1 °F 90% 30.12 in 10.0 mi Calm Calm - N/A   Mostly Cloudy
5:56 AM 53.1 °F 51.1 °F 93% 30.13 in 10.0 mi SE 4.6 mph - N/A   Overcast
6:56 AM 55.0 °F 52.0 °F 89% 30.14 in 10.0 mi SSE 4.6 mph - N/A   Mostly Cloudy
7:56 AM 55.0 °F 51.1 °F 86% 30.15 in 10.0 mi SE 4.6 mph - N/A   Mostly Cloudy
8:56 AM 61.0 °F 53.1 °F 75% 30.14 in 10.0 mi SE 5.8 mph - N/A   Scattered Clouds
9:56 AM 64.0 °F 52.0 °F 65% 30.14 in 10.0 mi Variable 4.6 mph - N/A   Scattered Clouds
10:56 AM 66.9 °F 52.0 °F 59% 30.14 in 10.0 mi Calm Calm - N/A   Scattered Clouds
11:56 AM 69.1 °F 51.1 °F 53% 30.13 in 10.0 mi Calm Calm - N/A   Mostly Cloudy
12:56 PM 71.1 °F 50.0 °F 47% 30.12 in 10.0 mi SW 4.6 mph - N/A   Mostly Cloudy
1:56 PM 72.0 °F 48.9 °F 44% 30.10 in 10.0 mi Calm Calm - N/A   Scattered Clouds
2:56 PM 73.9 °F 48.9 °F 41% 30.09 in 10.0 mi NW 9.2 mph - N/A   Mostly Cloudy
3:56 PM 75.0 °F 48.0 °F 38% 30.07 in 10.0 mi NNW 9.2 mph - N/A   Mostly Cloudy
4:56 PM 75.9 °F 46.9 °F 36% 30.05 in 10.0 mi NE 8.1 mph - N/A   Scattered Clouds
5:56 PM 75.0 °F 48.0 °F 38% 30.04 in 10.0 mi NW 9.2 mph - N/A   Partly Cloudy
6:56 PM 73.0 °F 46.0 °F 38% 30.04 in 10.0 mi North 8.1 mph - N/A   Clear
7:56 PM 69.1 °F 48.9 °F 49% 30.03 in 10.0 mi North 8.1 mph - N/A   Clear
8:56 PM 66.0 °F 52.0 °F 60% 30.05 in 10.0 mi WNW 5.8 mph - N/A   Clear
9:56 PM 63.0 °F 53.1 °F 70% 30.05 in 10.0 mi NW 5.8 mph - N/A   Clear
11:56 PM 59.0 °F 53.1 °F 81% 30.04 in 10.0 mi North 5.8 mph - N/A   Clear